Location: Maddington
(51.2000°N, 1.9167°W)
Time: 16:25:20
(UTC+00:00)

Cosmos 1125 Rocket - Pass Details

Date: 26 June 2021
Orbit: 757 x 780 km, 74.0° (Epoch: 28 July)

Event Time Altitude Azimuth Distance (km) Brightness Sun altitude
Rises 22:25:50 0° 340° (NNW) 3,246 8.9 -12.0°
Reaches altitude 10° 22:30:28 10° 17° (NNE) 2,323 6.8 -12.3°
Maximum altitude 22:31:45 11° 31° (NNE) 2,267 6.4 -12.4°
Drops below altitude 10° 22:33:02 10° 46° (NE) 2,324 6.3 -12.4°
Sets 22:37:39 0° 83° (E) 3,254 6.6 -12.7°
